Zurück zum Katalog

FENGYUN 1C DEB

AktivSSO
NORAD 31339·DEBRIS·🇨🇳 China

Gestartet May 10, 1999 von Taiyuan Satellite Launch Center

Loading…

Nächste Überflüge (nächste 24 Stunden)

TLE

AktuellSource: Space-Track

Epoche: Sep 14, 2026, 07:11 UTC

1 31339U 99025BQT 26257.29964224  .00000887  00000-0  48713-3 0  9993
2 31339  98.7034 271.3132 0072672 260.2849  99.0110 14.12968552995686

Verfolge FENGYUN 1C DEB in Echtzeit mit AllMySat

Download on the App Store